| time (UTC) | temp F | wind direction | speed MPH | gust MPH | rain 1hr in | rain 24hr in | rain mn in | humidity % | barometer mb |
| 20260507121041 | 50 | 323 | 5.0 | 8.0 | 0.00 | 0.24 | 0.00 | 65 | 1012.6 |
| 20260507120541 | 50 | 322 | 4.0 | 8.0 | 0.00 | 0.24 | 0.00 | 66 | 1012.5 |
| 20260507120048 | 50 | 311 | 4.0 | 7.0 | 0.00 | 0.24 | 0.00 | 64 | 1012.7 |
| 20260507115541 | 50 | 313 | 4.0 | 6.0 | 0.00 | 0.29 | 0.00 | 64 | 1012.8 |
| 20260507115041 | 49 | 319 | 4.0 | 5.0 | 0.00 | 0.29 | 0.00 | 64 | 1012.7 |
| 20260507114556 | 49 | 304 | 3.0 | 9.0 | 0.00 | 0.29 | 0.00 | 65 | 1012.7 |
| 20260507114044 | 49 | 304 | 3.0 | 9.0 | 0.00 | 0.29 | 0.00 | 66 | 1012.8 |
| 20260507113541 | 49 | 300 | 4.0 | 7.0 | 0.00 | 0.29 | 0.00 | 64 | 1012.8 |
| 20260507113044 | 49 | 296 | 3.0 | 7.0 | 0.00 | 0.29 | 0.00 | 65 | 1012.7 |
| 20260507112541 | 49 | 312 | 2.0 | 6.0 | 0.00 | 0.29 | 0.00 | 67 | 1012.7 |
| 20260507112041 | 49 | 312 | 2.0 | 7.0 | 0.00 | 0.29 | 0.00 | 67 | 1012.7 |
| 20260507111551 | 49 | 313 | 3.0 | 7.0 | 0.00 | 0.29 | 0.00 | 69 | 1012.7 |
| 20260507111045 | 48 | 298 | 1.0 | 3.0 | 0.00 | 0.29 | 0.00 | 74 | 1012.5 |
| 20260507110540 | 48 | 0 | 0.0 | 3.0 | 0.00 | 0.29 | 0.00 | 77 | 1012.4 |
| 20260507110050 | 48 | 27 | 0.0 | 3.0 | 0.00 | 0.29 | 0.00 | 78 | 1012.3 |
| 20260507105542 | 48 | 0 | 0.0 | 0.0 | 0.00 | 0.29 | 0.00 | 79 | 1012.2 |
| 20260507105044 | 48 | 0 | 0.0 | 0.0 | 0.00 | 0.29 | 0.00 | 80 | 1012.4 |
| 20260507104555 | 48 | 0 | 0.0 | 0.0 | 0.00 | 0.29 | 0.00 | 77 | 1012.3 |
| 20260507104045 | 47 | 0 | 0.0 | 3.0 | 0.00 | 0.29 | 0.00 | 79 | 1012.3 |
| 20260507103540 | 47 | 0 | 0.0 | 3.0 | 0.00 | 0.29 | 0.00 | 81 | 1012.3 |
| 20260507103049 | 47 | 0 | 0.0 | 3.0 | 0.00 | 0.29 | 0.00 | 81 | 1012.1 |
| 20260507102541 | 47 | 0 | 0.0 | 2.0 | 0.00 | 0.29 | 0.00 | 81 | 1012.0 |
| 20260507102041 | 47 | 0 | 0.0 | 3.0 | 0.00 | 0.29 | 0.00 | 83 | 1011.8 |
| 20260507101549 | 48 | 28 | 1.0 | 3.0 | 0.00 | 0.29 | 0.00 | 82 | 1011.7 |
| 20260507101043 | 48 | 0 | 0.0 | 0.0 | 0.00 | 0.29 | 0.00 | 82 | 1011.6 |
| 20260507100540 | 48 | 0 | 0.0 | 0.0 | 0.00 | 0.29 | 0.00 | 83 | 1011.7 |
| 20260507100054 | 48 | 0 | 0.0 | 0.0 | 0.00 | 0.29 | 0.00 | 83 | 1011.7 |
| 20260507095538 | 48 | 0 | 0.0 | 0.0 | 0.00 | 0.29 | 0.00 | 81 | 1011.7 |
| 20260507095039 | 48 | 0 | 0.0 | 0.0 | 0.00 | 0.29 | 0.00 | 79 | 1011.7 |
| 20260507094547 | 48 | 0 | 0.0 | 0.0 | 0.00 | 0.29 | 0.00 | 79 | 1011.7 |
| 20260507094037 | 48 | 0 | 0.0 | 0.0 | 0.00 | 0.29 | 0.00 | 79 | 1011.8 |
| 20260507093537 | 48 | 0 | 0.0 | 2.0 | 0.00 | 0.29 | 0.00 | 80 | 1011.7 |
| 20260507093058 | 49 | 0 | 0.0 | 2.0 | 0.00 | 0.29 | 0.00 | 77 | 1011.7 |
| 20260507092542 | 49 | 28 | 0.0 | 2.0 | 0.00 | 0.29 | 0.00 | 76 | 1011.8 |
| 20260507092042 | 50 | 0 | 0.0 | 3.0 | 0.00 | 0.29 | 0.00 | 76 | 1011.6 |
| 20260507091554 | 50 | 28 | 1.0 | 3.0 | 0.00 | 0.29 | 0.00 | 71 | 1011.7 |
| 20260507091042 | 50 | 28 | 0.0 | 2.0 | 0.00 | 0.29 | 0.00 | 70 | 1011.7 |
| 20260507090541 | 50 | 0 | 0.0 | 0.0 | 0.00 | 0.29 | 0.00 | 72 | 1011.6 |
| 20260507090046 | 50 | 0 | 0.0 | 0.0 | 0.00 | 0.29 | 0.00 | 73 | 1011.6 |
| 20260507085542 | 50 | 0 | 0.0 | 4.0 | 0.00 | 0.29 | 0.00 | 70 | 1011.4 |
| 20260507085047 | 50 | 0 | 1.0 | 4.0 | 0.00 | 0.29 | 0.00 | 65 | 1011.3 |
| 20260507084551 | 50 | 30 | 2.0 | 8.0 | 0.00 | 0.29 | 0.00 | 68 | 1011.2 |
| 20260507084041 | 50 | 29 | 2.0 | 8.0 | 0.00 | 0.29 | 0.00 | 68 | 1011.3 |
| 20260507083543 | 50 | 9 | 3.0 | 8.0 | 0.00 | 0.29 | 0.00 | 67 | 1011.3 |
| 20260507083044 | 50 | 331 | 1.0 | 9.0 | 0.00 | 0.29 | 0.00 | 72 | 1011.3 |
| 20260507082544 | 50 | 329 | 3.0 | 9.0 | 0.00 | 0.29 | 0.00 | 71 | 1011.3 |
| 20260507082041 | 50 | 311 | 7.0 | 9.0 | 0.00 | 0.29 | 0.00 | 71 | 1011.2 |
| 20260507081550 | 50 | 350 | 6.0 | 9.0 | 0.00 | 0.29 | 0.00 | 74 | 1011.3 |
| 20260507081041 | 50 | 317 | 2.0 | 6.0 | 0.00 | 0.29 | 0.00 | 79 | 1011.2 |
| 20260507080543 | 50 | 323 | 2.0 | 5.0 | 0.00 | 0.29 | 0.00 | 82 | 1011.2 |
| 20260507080047 | 50 | 331 | 1.0 | 4.0 | 0.00 | 0.29 | 0.00 | 82 | 1011.2 |
| 20260507075542 | 50 | 331 | 3.0 | 4.0 | 0.00 | 0.29 | 0.00 | 82 | 1011.2 |
| 20260507075045 | 50 | 315 | 2.0 | 4.0 | 0.00 | 0.29 | 0.00 | 85 | 1011.3 |
| 20260507074549 | 51 | 315 | 0.0 | 0.0 | 0.00 | 0.29 | 0.00 | 86 | 1011.3 |
| 20260507074042 | 51 | 0 | 0.0 | 0.0 | 0.00 | 0.29 | 0.00 | 86 | 1011.3 |
| 20260507073543 | 51 | 0 | 0.0 | 1.0 | 0.00 | 0.29 | 0.00 | 86 | 1011.3 |
| 20260507073052 | 51 | 0 | 0.0 | 1.0 | 0.00 | 0.29 | 0.00 | 86 | 1011.3 |
| 20260507072542 | 51 | 0 | 0.0 | 2.0 | 0.00 | 0.29 | 0.00 | 85 | 1011.3 |
| 20260507072045 | 51 | 0 | 0.0 | 2.0 | 0.00 | 0.29 | 0.00 | 85 | 1011.4 |
| 20260507071551 | 51 | 0 | 0.0 | 3.0 | 0.00 | 0.29 | 0.00 | 84 | 1011.3 |
| 20260507071042 | 51 | 0 | 0.0 | 4.0 | 0.00 | 0.29 | 0.00 | 84 | 1011.4 |
| 20260507070542 | 51 | 315 | 1.0 | 4.0 | 0.00 | 0.29 | 0.00 | 82 | 1011.5 |
| 20260507070059 | 52 | 317 | 2.0 | 4.0 | 0.00 | 0.29 | 0.00 | 81 | 1011.6 |
| 20260507065544 | 52 | 317 | 3.0 | 5.0 | 0.00 | 0.29 | 0.00 | 81 | 1011.6 |
| 20260507065041 | 52 | 317 | 2.0 | 5.0 | 0.00 | 0.29 | 0.00 | 80 | 1011.6 |
| 20260507064548 | 52 | 319 | 3.0 | 5.0 | 0.00 | 0.29 | 0.00 | 81 | 1011.6 |
| 20260507064042 | 52 | 331 | 3.0 | 6.0 | 0.00 | 0.29 | 0.00 | 80 | 1011.4 |
| 20260507063545 | 52 | 329 | 2.0 | 6.0 | 0.00 | 0.29 | 0.00 | 81 | 1011.6 |
| 20260507063053 | 52 | 296 | 0.0 | 2.0 | 0.00 | 0.29 | 0.00 | 82 | 1011.3 |
| 20260507062541 | 52 | 0 | 0.0 | 3.0 | 0.00 | 0.29 | 0.00 | 82 | 1011.5 |
| 20260507062037 | 52 | 0 | 0.0 | 3.0 | 0.00 | 0.29 | 0.00 | 82 | 1011.7 |
| 20260507061552 | 52 | 0 | 0.0 | 1.0 | 0.00 | 0.29 | 0.00 | 82 | 1011.4 |
| 20260507061042 | 52 | 0 | 0.0 | 1.0 | 0.00 | 0.29 | 0.00 | 82 | 1011.5 |
| 20260507060541 | 52 | 0 | 0.0 | 0.0 | 0.00 | 0.29 | 0.00 | 81 | 1011.6 |
| 20260507060058 | 53 | 0 | 0.0 | 0.0 | 0.00 | 0.29 | 0.00 | 81 | 1011.6 |
| 20260507055541 | 53 | 0 | 0.0 | 0.0 | 0.00 | 0.29 | 0.00 | 80 | 1011.4 |
| 20260507055042 | 53 | 0 | 0.0 | 0.0 | 0.00 | 0.29 | 0.00 | 79 | 1011.4 |
| 20260507054549 | 53 | 0 | 0.0 | 1.0 | 0.00 | 0.29 | 0.00 | 78 | 1011.4 |
| 20260507054042 | 53 | 0 | 0.0 | 2.0 | 0.00 | 0.29 | 0.00 | 77 | 1011.2 |
| 20260507053542 | 53 | 0 | 0.0 | 4.0 | 0.00 | 0.29 | 0.00 | 76 | 1011.1 |
| 20260507053054 | 53 | 290 | 2.0 | 4.0 | 0.00 | 0.29 | 0.00 | 76 | 1011.1 |
| 20260507052538 | 53 | 19 | 0.0 | 2.0 | 0.00 | 0.29 | 0.00 | 78 | 1011.1 |
| 20260507052042 | 53 | 19 | 0.0 | 2.0 | 0.00 | 0.29 | 0.00 | 78 | 1011.0 |
| 20260507051552 | 53 | 0 | 0.0 | 2.0 | 0.00 | 0.29 | 0.00 | 79 | 1011.0 |
| 20260507051041 | 53 | 0 | 0.0 | 3.0 | 0.00 | 0.29 | 0.00 | 78 | 1010.9 |
| 20260507050539 | 54 | 0 | 0.0 | 3.0 | 0.00 | 0.29 | 0.00 | 78 | 1011.0 |
| 20260507050052 | 54 | 19 | 0.0 | 5.0 | 0.00 | 0.29 | 0.00 | 77 | 1011.1 |
| 20260507045541 | 54 | 19 | 2.0 | 5.0 | 0.00 | 0.29 | 0.00 | 77 | 1011.1 |
| 20260507045041 | 54 | 55 | 0.0 | 4.0 | 0.00 | 0.29 | 0.00 | 76 | 1011.2 |
| 20260507044559 | 54 | 81 | 3.0 | 4.0 | 0.00 | 0.29 | 0.00 | 77 | 1011.1 |
| 20260507044041 | 54 | 19 | 1.0 | 7.0 | 0.00 | 0.29 | 0.00 | 76 | 1011.0 |
| 20260507043540 | 54 | 328 | 2.0 | 7.0 | 0.00 | 0.29 | 0.00 | 76 | 1011.2 |
| 20260507043048 | 54 | 0 | 1.0 | 6.0 | 0.00 | 0.29 | 0.00 | 77 | 1011.1 |
| 20260507042542 | 54 | 329 | 3.0 | 9.0 | 0.00 | 0.29 | 0.00 | 77 | 1011.0 |
| 20260507042044 | 54 | 360 | 3.0 | 9.0 | 0.00 | 0.29 | 0.00 | 78 | 1011.1 |
| 20260507041550 | 54 | 360 | 5.0 | 9.0 | 0.00 | 0.29 | 0.00 | 79 | 1010.8 |
| 20260507041038 | 54 | 311 | 2.0 | 8.0 | 0.00 | 0.29 | 0.00 | 78 | 1010.9 |
| 20260507040543 | 54 | 311 | 4.0 | 8.0 | 0.00 | 0.29 | 0.00 | 78 | 1011.1 |
| 20260507040045 | 54 | 5 | 0.0 | 5.0 | 0.00 | 0.29 | 0.00 | 80 | 1011.1 |
| 20260507035541 | 54 | 0 | 0.0 | 5.0 | 0.00 | 0.29 | 0.29 | 79 | 1011.0 |
| 20260507035042 | 54 | 9 | 2.0 | 6.0 | 0.00 | 0.29 | 0.29 | 79 | 1010.9 |
| 20260507034608 | 54 | 18 | 3.0 | 6.0 | 0.00 | 0.29 | 0.29 | 79 | 1010.8 |
| 20260507034037 | 54 | 26 | 2.0 | 7.0 | 0.00 | 0.29 | 0.29 | 79 | 1010.6 |
| 20260507033541 | 54 | 5 | 1.0 | 8.0 | 0.00 | 0.29 | 0.29 | 80 | 1010.8 |
| 20260507033049 | 54 | 28 | 4.0 | 8.0 | 0.00 | 0.29 | 0.29 | 81 | 1010.9 |
| 20260507032542 | 54 | 86 | 1.0 | 10.0 | 0.00 | 0.29 | 0.29 | 81 | 1011.0 |
| 20260507032040 | 55 | 14 | 0.0 | 10.0 | 0.00 | 0.29 | 0.29 | 82 | 1010.8 |
| 20260507031553 | 55 | 11 | 4.0 | 10.0 | 0.00 | 0.29 | 0.29 | 81 | 1011.1 |
| 20260507031041 | 55 | 5 | 5.0 | 9.0 | 0.00 | 0.29 | 0.29 | 80 | 1011.0 |
| 20260507030543 | 55 | 0 | 1.0 | 4.0 | 0.00 | 0.29 | 0.29 | 80 | 1010.8 |
| 20260507030050 | 55 | 0 | 1.0 | 5.0 | 0.00 | 0.29 | 0.29 | 80 | 1010.8 |
| 20260507025544 | 55 | 0 | 1.0 | 5.0 | 0.00 | 0.29 | 0.29 | 81 | 1011.0 |
| 20260507025038 | 55 | 0 | 2.0 | 11.0 | 0.00 | 0.29 | 0.29 | 81 | 1011.0 |
| 20260507024555 | 55 | 325 | 3.0 | 12.0 | 0.00 | 0.29 | 0.29 | 82 | 1010.7 |
| 20260507024038 | 55 | 340 | 7.0 | 12.0 | 0.00 | 0.29 | 0.29 | 82 | 1010.4 |
| 20260507023540 | 55 | 344 | 8.0 | 13.0 | 0.00 | 0.29 | 0.29 | 82 | 1010.4 |
| 20260507023051 | 55 | 50 | 5.0 | 13.0 | 0.00 | 0.29 | 0.29 | 82 | 1010.6 |
| 20260507022537 | 55 | 336 | 2.0 | 13.0 | 0.00 | 0.29 | 0.29 | 82 | 1010.8 |
| 20260507022038 | 55 | 308 | 9.0 | 13.0 | 0.00 | 0.29 | 0.29 | 82 | 1010.7 |
| 20260507021551 | 56 | 330 | 7.0 | 14.0 | 0.00 | 0.29 | 0.29 | 82 | 1010.5 |
| 20260507021040 | 55 | 270 | 6.0 | 14.0 | 0.00 | 0.29 | 0.29 | 83 | 1010.8 |
| 20260507020541 | 55 | 305 | 8.0 | 14.0 | 0.00 | 0.29 | 0.29 | 83 | 1010.6 |
| 20260507020051 | 55 | 321 | 4.0 | 14.0 | 0.00 | 0.29 | 0.29 | 84 | 1010.4 |
| 20260507015541 | 55 | 314 | 6.0 | 11.0 | 0.00 | 0.29 | 0.29 | 84 | 1010.6 |
| 20260507015041 | 55 | 319 | 7.0 | 11.0 | 0.00 | 0.29 | 0.29 | 84 | 1010.3 |
| 20260507014554 | 56 | 319 | 6.0 | 10.0 | 0.00 | 0.29 | 0.29 | 84 | 1010.3 |
| 20260507014041 | 56 | 321 | 4.0 | 8.0 | 0.00 | 0.29 | 0.29 | 83 | 1010.4 |
| 20260507013541 | 57 | 326 | 3.0 | 9.0 | 0.00 | 0.29 | 0.29 | 83 | 1010.4 |
| 20260507013100 | 57 | 300 | 4.0 | 9.0 | 0.00 | 0.29 | 0.29 | 82 | 1010.5 |
| 20260507012540 | 57 | 336 | 2.0 | 8.0 | 0.00 | 0.29 | 0.29 | 82 | 1010.3 |
| 20260507012041 | 57 | 341 | 4.0 | 9.0 | 0.00 | 0.29 | 0.29 | 82 | 1010.3 |
| 20260507011545 | 57 | 346 | 2.0 | 14.0 | 0.00 | 0.29 | 0.29 | 82 | 1010.1 |
| 20260507011042 | 57 | 9 | 8.0 | 16.0 | 0.00 | 0.29 | 0.29 | 82 | 1010.0 |
| 20260507010540 | 58 | 349 | 8.0 | 16.0 | 0.00 | 0.29 | 0.29 | 82 | 1010.1 |
| 20260507010053 | 58 | 325 | 11.0 | 16.0 | 0.00 | 0.29 | 0.29 | 82 | 1010.3 |
| 20260507005540 | 58 | 321 | 10.0 | 14.0 | 0.00 | 0.29 | 0.29 | 82 | 1010.4 |
| 20260507005043 | 58 | 321 | 7.0 | 14.0 | 0.00 | 0.29 | 0.29 | 82 | 1010.2 |
| 20260507004550 | 58 | 322 | 9.0 | 15.0 | 0.00 | 0.29 | 0.29 | 82 | 1010.1 |
| 20260507004041 | 58 | 331 | 7.0 | 18.0 | 0.00 | 0.29 | 0.29 | 82 | 1010.1 |
| 20260507003542 | 58 | 315 | 10.0 | 18.0 | 0.00 | 0.29 | 0.29 | 82 | 1010.1 |
| 20260507003047 | 59 | 303 | 11.0 | 16.0 | 0.00 | 0.29 | 0.29 | 82 | 1010.0 |
| 20260507002544 | 59 | 289 | 10.0 | 16.0 | 0.00 | 0.29 | 0.29 | 82 | 1009.9 |
| 20260507002041 | 59 | 319 | 9.0 | 13.0 | 0.00 | 0.29 | 0.29 | 83 | 1009.7 |
| 20260507001553 | 59 | 288 | 8.0 | 13.0 | 0.00 | 0.29 | 0.29 | 83 | 1009.7 |
| 20260507001040 | 60 | 322 | 4.0 | 9.0 | 0.00 | 0.29 | 0.29 | 83 | 1009.6 |
| 20260507000544 | 60 | 300 | 6.0 | 9.0 | 0.00 | 0.29 | 0.29 | 83 | 1009.7 |
| 20260507000055 | 60 | 288 | 2.0 | 8.0 | 0.00 | 0.29 | 0.29 | 83 | 1009.6 |
| 20260506235541 | 60 | 268 | 5.0 | 8.0 | 0.00 | 0.29 | 0.29 | 83 | 1009.5 |
| 20260506235043 | 60 | 307 | 1.0 | 7.0 | 0.00 | 0.29 | 0.29 | 84 | 1009.3 |
| 20260506234543 | 61 | 309 | 2.0 | 6.0 | 0.00 | 0.29 | 0.29 | 84 | 1008.9 |
| 20260506234039 | 61 | 302 | 1.0 | 6.0 | 0.00 | 0.29 | 0.29 | 83 | 1008.7 |
| 20260506233540 | 61 | 313 | 0.0 | 14.0 | 0.00 | 0.29 | 0.29 | 84 | 1008.6 |
| 20260506233052 | 61 | 0 | 3.0 | 14.0 | 0.00 | 0.29 | 0.29 | 84 | 1008.7 |
| 20260506232537 | 61 | 284 | 6.0 | 14.0 | 0.00 | 0.29 | 0.29 | 84 | 1008.7 |
| 20260506232040 | 61 | 264 | 4.0 | 12.0 | 0.00 | 0.29 | 0.29 | 83 | 1008.5 |
| 20260506231551 | 62 | 309 | 3.0 | 12.0 | 0.00 | 0.29 | 0.29 | 84 | 1008.6 |
| 20260506231041 | 62 | 281 | 8.0 | 12.0 | 0.00 | 0.29 | 0.29 | 84 | 1008.7 |
| 20260506230540 | 62 | 302 | 3.0 | 11.0 | 0.01 | 0.29 | 0.29 | 85 | 1008.5 |
| 20260506230050 | 62 | 273 | 5.0 | 12.0 | 0.01 | 0.29 | 0.29 | 85 | 1008.4 |
| 20260506225541 | 62 | 289 | 8.0 | 12.0 | 0.01 | 0.29 | 0.29 | 85 | 1008.4 |
| 20260506225041 | 63 | 304 | 7.0 | 12.0 | 0.01 | 0.29 | 0.29 | 85 | 1008.2 |
| 20260506224602 | 63 | 300 | 6.0 | 12.0 | 0.01 | 0.29 | 0.29 | 85 | 1008.2 |
| 20260506224042 | 63 | 258 | 5.0 | 12.0 | 0.01 | 0.29 | 0.29 | 85 | 1008.4 |
| 20260506223540 | 63 | 241 | 3.0 | 9.0 | 0.01 | 0.29 | 0.29 | 86 | 1008.3 |
| 20260506223051 | 63 | 266 | 4.0 | 9.0 | 0.01 | 0.29 | 0.29 | 87 | 1008.3 |
| 20260506222540 | 63 | 273 | 3.0 | 8.0 | 0.01 | 0.29 | 0.29 | 87 | 1008.1 |
| 20260506222040 | 63 | 249 | 2.0 | 8.0 | 0.01 | 0.29 | 0.29 | 87 | 1008.3 |
| 20260506221554 | 63 | 261 | 1.0 | 11.0 | 0.01 | 0.29 | 0.29 | 86 | 1008.3 |
| 20260506221041 | 64 | 305 | 4.0 | 12.0 | 0.01 | 0.29 | 0.29 | 85 | 1008.2 |
| 20260506220541 | 64 | 252 | 6.0 | 12.0 | 0.00 | 0.28 | 0.28 | 85 | 1008.3 |
| 20260506220045 | 65 | 257 | 3.0 | 9.0 | 0.00 | 0.28 | 0.28 | 86 | 1008.2 |
| 20260506215542 | 65 | 289 | 4.0 | 8.0 | 0.00 | 0.28 | 0.28 | 85 | 1008.3 |
| 20260506215041 | 65 | 221 | 0.0 | 4.0 | 0.00 | 0.28 | 0.28 | 85 | 1007.8 |
| 20260506214606 | 65 | 0 | 1.0 | 6.0 | 0.00 | 0.28 | 0.28 | 85 | 1007.9 |
| 20260506214041 | 65 | 0 | 0.0 | 10.0 | 0.00 | 0.28 | 0.28 | 85 | 1007.6 |
| 20260506213543 | 65 | 221 | 2.0 | 10.0 | 0.00 | 0.28 | 0.28 | 85 | 1007.7 |
| 20260506213047 | 65 | 166 | 4.0 | 9.0 | 0.00 | 0.28 | 0.28 | 84 | 1007.6 |
| 20260506212541 | 65 | 0 | 1.0 | 7.0 | 0.00 | 0.28 | 0.28 | 84 | 1007.6 |
| 20260506212041 | 66 | 227 | 1.0 | 7.0 | 0.00 | 0.28 | 0.28 | 84 | 1007.5 |
| 20260506211554 | 66 | 0 | 2.0 | 8.0 | 0.00 | 0.28 | 0.28 | 84 | 1007.3 |
| 20260506211041 | 66 | 212 | 0.0 | 9.0 | 0.00 | 0.28 | 0.28 | 86 | 1007.4 |
| 20260506210541 | 65 | 0 | 4.0 | 9.0 | 0.00 | 0.28 | 0.28 | 85 | 1007.4 |
| 20260506210053 | 66 | 229 | 1.0 | 7.0 | 0.00 | 0.28 | 0.28 | 86 | 1007.5 |
| 20260506205540 | 66 | 0 | 2.0 | 7.0 | 0.00 | 0.28 | 0.28 | 86 | 1007.3 |
| 20260506205040 | 66 | 250 | 1.0 | 3.0 | 0.00 | 0.28 | 0.28 | 87 | 1007.3 |
| 20260506204610 | 66 | 0 | 0.0 | 4.0 | 0.00 | 0.28 | 0.28 | 87 | 1007.3 |
| 20260506204041 | 66 | 252 | 0.0 | 4.0 | 0.00 | 0.28 | 0.28 | 87 | 1007.3 |
| 20260506203541 | 66 | 220 | 0.0 | 4.0 | 0.00 | 0.28 | 0.28 | 88 | 1007.3 |
| 20260506203052 | 65 | 182 | 0.0 | 5.0 | 0.00 | 0.28 | 0.28 | 88 | 1007.1 |
| 20260506202540 | 66 | 192 | 2.0 | 7.0 | 0.00 | 0.28 | 0.28 | 88 | 1007.1 |
| 20260506202040 | 65 | 192 | 3.0 | 7.0 | 0.00 | 0.28 | 0.28 | 89 | 1007.2 |
| 20260506201552 | 65 | 0 | 1.0 | 6.0 | 0.00 | 0.28 | 0.28 | 90 | 1007.2 |
| 20260506201040 | 65 | 0 | 2.0 | 6.0 | 0.00 | 0.28 | 0.28 | 91 | 1007.3 |
| 20260506200538 | 64 | 173 | 0.0 | 6.0 | 0.00 | 0.28 | 0.28 | 91 | 1007.3 |
| 20260506200048 | 64 | 182 | 1.0 | 4.0 | 0.00 | 0.28 | 0.28 | 91 | 1007.2 |
| 20260506195541 | 64 | 0 | 0.0 | 4.0 | 0.00 | 0.28 | 0.28 | 92 | 1007.3 |
| 20260506195044 | 63 | 176 | 1.0 | 5.0 | 0.01 | 0.28 | 0.28 | 92 | 1007.4 |
| 20260506194605 | 63 | 0 | 2.0 | 6.0 | 0.01 | 0.28 | 0.28 | 92 | 1007.3 |
| 20260506194046 | 63 | 0 | 1.0 | 6.0 | 0.01 | 0.28 | 0.28 | 92 | 1007.4 |
| 20260506193541 | 63 | 134 | 1.0 | 9.0 | 0.02 | 0.28 | 0.28 | 92 | 1007.4 |
| 20260506193054 | 63 | 125 | 4.0 | 9.0 | 0.02 | 0.28 | 0.28 | 92 | 1007.4 |
| 20260506192540 | 63 | 119 | 1.0 | 4.0 | 0.02 | 0.28 | 0.28 | 93 | 1007.3 |
| 20260506192041 | 63 | 0 | 1.0 | 5.0 | 0.02 | 0.28 | 0.28 | 93 | 1007.4 |
| 20260506191552 | 62 | 138 | 2.0 | 5.0 | 0.03 | 0.28 | 0.28 | 93 | 1007.4 |
| 20260506191040 | 62 | 156 | 0.0 | 5.0 | 0.03 | 0.28 | 0.28 | 92 | 1007.5 |
| 20260506190540 | 62 | 157 | 2.0 | 7.0 | 0.03 | 0.28 | 0.28 | 92 | 1007.6 |
| 20260506190051 | 62 | 138 | 2.0 | 7.0 | 0.03 | 0.28 | 0.28 | 92 | 1007.5 |
| 20260506185541 | 62 | 138 | 2.0 | 5.0 | 0.03 | 0.28 | 0.28 | 92 | 1007.6 |
| 20260506185041 | 62 | 138 | 2.0 | 8.0 | 0.02 | 0.27 | 0.27 | 92 | 1007.7 |
| 20260506184551 | 62 | 132 | 3.0 | 8.0 | 0.02 | 0.27 | 0.27 | 92 | 1007.7 |
| 20260506184041 | 62 | 134 | 4.0 | 7.0 | 0.02 | 0.27 | 0.27 | 91 | 1007.7 |
| 20260506183541 | 62 | 146 | 3.0 | 6.0 | 0.01 | 0.26 | 0.26 | 91 | 1007.8 |
| 20260506183056 | 62 | 159 | 2.0 | 9.0 | 0.01 | 0.26 | 0.26 | 91 | 1007.9 |
| 20260506182540 | 62 | 137 | 3.0 | 9.0 | 0.01 | 0.26 | 0.26 | 91 | 1007.8 |
| 20260506182040 | 62 | 165 | 3.0 | 9.0 | 0.01 | 0.26 | 0.26 | 91 | 1007.8 |
| 20260506181547 | 62 | 169 | 3.0 | 9.0 | 0.00 | 0.25 | 0.25 | 90 | 1007.9 |
| 20260506181042 | 62 | 122 | 4.0 | 9.0 | 0.00 | 0.25 | 0.25 | 90 | 1007.8 |
| 20260506180541 | 62 | 152 | 3.0 | 8.0 | 0.00 | 0.25 | 0.25 | 89 | 1007.8 |
| 20260506180049 | 62 | 157 | 3.0 | 7.0 | 0.00 | 0.25 | 0.25 | 89 | 1007.8 |
| 20260506175541 | 62 | 163 | 3.0 | 7.0 | 0.00 | 0.25 | 0.25 | 89 | 1007.8 |
| 20260506175044 | 62 | 178 | 2.0 | 7.0 | 0.00 | 0.25 | 0.25 | 89 | 1007.8 |
| 20260506174555 | 62 | 150 | 3.0 | 8.0 | 0.00 | 0.25 | 0.25 | 89 | 1007.8 |
| 20260506174041 | 62 | 166 | 2.0 | 9.0 | 0.00 | 0.25 | 0.25 | 89 | 1007.8 |
| 20260506173544 | 62 | 140 | 3.0 | 9.0 | 0.00 | 0.25 | 0.25 | 89 | 1007.8 |
| 20260506173053 | 62 | 154 | 4.0 | 8.0 | 0.00 | 0.25 | 0.25 | 88 | 1007.7 |
| 20260506172541 | 62 | 169 | 2.0 | 8.0 | 0.00 | 0.25 | 0.25 | 89 | 1007.7 |
| 20260506172042 | 62 | 192 | 3.0 | 8.0 | 0.00 | 0.25 | 0.25 | 88 | 1007.7 |
| 20260506171558 | 62 | 165 | 1.0 | 8.0 | 0.00 | 0.25 | 0.25 | 89 | 1007.7 |
| 20260506171041 | 62 | 155 | 2.0 | 7.0 | 0.00 | 0.25 | 0.25 | 89 | 1007.7 |
| 20260506170540 | 62 | 0 | 1.0 | 8.0 | 0.00 | 0.25 | 0.25 | 90 | 1007.7 |
| 20260506170049 | 62 | 192 | 3.0 | 11.0 | 0.00 | 0.25 | 0.25 | 90 | 1007.7 |
| 20260506165542 | 61 | 166 | 4.0 | 11.0 | 0.00 | 0.25 | 0.25 | 89 | 1007.7 |
| 20260506165041 | 61 | 143 | 3.0 | 8.0 | 0.00 | 0.25 | 0.25 | 90 | 1007.8 |
| 20260506164558 | 61 | 169 | 2.0 | 10.0 | 0.00 | 0.25 | 0.25 | 90 | 1007.7 |
| 20260506164041 | 61 | 148 | 4.0 | 11.0 | 0.00 | 0.25 | 0.25 | 90 | 1007.7 |
| 20260506163540 | 61 | 165 | 4.0 | 11.0 | 0.00 | 0.25 | 0.25 | 90 | 1007.7 |
| 20260506163054 | 61 | 181 | 5.0 | 11.0 | 0.00 | 0.25 | 0.25 | 90 | 1007.8 |
| 20260506162540 | 61 | 176 | 3.0 | 11.0 | 0.00 | 0.25 | 0.25 | 91 | 1007.8 |
| 20260506162039 | 61 | 143 | 4.0 | 11.0 | 0.00 | 0.25 | 0.25 | 91 | 1007.7 |
| 20260506161604 | 61 | 0 | 4.0 | 12.0 | 0.00 | 0.25 | 0.25 | 91 | 1007.7 |
| 20260506161040 | 61 | 174 | 5.0 | 12.0 | 0.00 | 0.25 | 0.25 | 91 | 1007.8 |
| 20260506160540 | 61 | 158 | 2.0 | 11.0 | 0.00 | 0.25 | 0.25 | 92 | 1007.7 |
| 20260506160052 | 61 | 181 | 4.0 | 14.0 | 0.00 | 0.25 | 0.25 | 91 | 1007.7 |
| 20260506155541 | 61 | 128 | 2.0 | 14.0 | 0.00 | 0.25 | 0.25 | 92 | 1007.7 |
| 20260506155041 | 61 | 148 | 5.0 | 13.0 | 0.00 | 0.25 | 0.25 | 91 | 1007.9 |
| 20260506154610 | 61 | 178 | 5.0 | 14.0 | 0.01 | 0.25 | 0.25 | 92 | 1007.8 |
| 20260506154041 | 61 | 148 | 4.0 | 14.0 | 0.01 | 0.25 | 0.25 | 92 | 1007.8 |
| 20260506153541 | 60 | 183 | 5.0 | 13.0 | 0.02 | 0.25 | 0.25 | 92 | 1007.7 |
| 20260506153049 | 61 | 161 | 4.0 | 12.0 | 0.03 | 0.25 | 0.25 | 92 | 1007.8 |
| 20260506152541 | 61 | 182 | 5.0 | 14.0 | 0.03 | 0.25 | 0.25 | 92 | 1007.8 |
| 20260506152039 | 61 | 202 | 3.0 | 14.0 | 0.03 | 0.25 | 0.25 | 92 | 1007.8 |
| 20260506151551 | 61 | 197 | 5.0 | 12.0 | 0.03 | 0.25 | 0.25 | 93 | 1007.7 |
| 20260506151038 | 61 | 150 | 5.0 | 11.0 | 0.03 | 0.25 | 0.25 | 92 | 1007.7 |
| 20260506150541 | 61 | 171 | 3.0 | 8.0 | 0.03 | 0.25 | 0.25 | 93 | 1007.5 |
| 20260506150054 | 60 | 171 | 3.0 | 9.0 | 0.03 | 0.25 | 0.25 | 93 | 1007.6 |
| 20260506145545 | 60 | 146 | 2.0 | 12.0 | 0.03 | 0.25 | 0.25 | 92 | 1007.7 |
| 20260506145039 | 60 | 159 | 2.0 | 12.0 | 0.02 | 0.24 | 0.24 | 92 | 1007.8 |
| 20260506144601 | 60 | 146 | 4.0 | 12.0 | 0.02 | 0.24 | 0.24 | 92 | 1007.9 |
| 20260506144038 | 60 | 184 | 5.0 | 9.0 | 0.01 | 0.23 | 0.23 | 92 | 1008.0 |
| 20260506143538 | 60 | 142 | 3.0 | 9.0 | 0.01 | 0.23 | 0.23 | 92 | 1008.1 |
| 20260506142540 | 59 | 0 | 0.0 | 4.0 | 0.12 | 0.21 | 0.21 | 92 | 1008.6 |
| 20260506142042 | 59 | 150 | 0.0 | 6.0 | 0.10 | 0.19 | 0.19 | 92 | 1008.8 |
| 20260506141549 | 59 | 148 | 0.0 | 6.0 | 0.10 | 0.18 | 0.18 | 91 | 1008.7 |
| 20260506141042 | 59 | 146 | 1.0 | 6.0 | 0.09 | 0.17 | 0.17 | 91 | 1008.7 |
| 20260506140542 | 60 | 181 | 1.0 | 9.0 | 0.09 | 0.16 | 0.16 | 91 | 1008.5 |
| 20260506140057 | 60 | 178 | 1.0 | 9.0 | 0.06 | 0.13 | 0.13 | 91 | 1008.5 |
| 20260506135542 | 60 | 142 | 2.0 | 8.0 | 0.04 | 0.11 | 0.11 | 91 | 1008.3 |
| 20260506135037 | 60 | 168 | 1.0 | 8.0 | 0.04 | 0.10 | 0.10 | 91 | 1008.4 |
| 20260506134544 | 60 | 0 | 1.0 | 8.0 | 0.04 | 0.10 | 0.10 | 91 | 1008.3 |
| 20260506134042 | 60 | 163 | 3.0 | 8.0 | 0.04 | 0.10 | 0.10 | 91 | 1008.3 |
| 20260506133543 | 60 | 181 | 4.0 | 8.0 | 0.03 | 0.09 | 0.09 | 91 | 1008.3 |
| 20260506133049 | 60 | 150 | 1.0 | 8.0 | 0.03 | 0.09 | 0.09 | 91 | 1008.4 |
| 20260506132541 | 59 | 0 | 3.0 | 8.0 | 0.03 | 0.09 | 0.09 | 91 | 1008.3 |
| 20260506132044 | 59 | 157 | 3.0 | 7.0 | 0.03 | 0.09 | 0.09 | 91 | 1008.2 |
| 20260506131551 | 59 | 197 | 1.0 | 6.0 | 0.02 | 0.08 | 0.08 | 91 | 1008.2 |
| 20260506131039 | 59 | 0 | 2.0 | 7.0 | 0.02 | 0.08 | 0.08 | 90 | 1008.3 |
| 20260506130540 | 59 | 186 | 2.0 | 7.0 | 0.02 | 0.07 | 0.07 | 90 | 1008.2 |
| 20260506130053 | 59 | 180 | 2.0 | 7.0 | 0.02 | 0.07 | 0.07 | 90 | 1008.4 |
| 20260506125538 | 59 | 182 | 3.0 | 7.0 | 0.02 | 0.07 | 0.07 | 90 | 1008.3 |
| 20260506125041 | 59 | 167 | 1.0 | 5.0 | 0.01 | 0.06 | 0.06 | 90 | 1008.2 |
| 20260506124554 | 59 | 187 | 0.0 | 4.0 | 0.02 | 0.06 | 0.06 | 90 | 1008.3 |
| 20260506124039 | 59 | 180 | 1.0 | 4.0 | 0.02 | 0.06 | 0.06 | 90 | 1008.5 |
| 20260506123546 | 59 | 0 | 1.0 | 4.0 | 0.02 | 0.06 | 0.06 | 90 | 1008.4 |
| 20260506123047 | 59 | 0 | 1.0 | 4.0 | 0.02 | 0.06 | 0.06 | 89 | 1008.5 |
| 20260506122540 | 59 | 178 | 0.0 | 3.0 | 0.03 | 0.06 | 0.06 | 89 | 1008.6 |
| 20260506122041 | 59 | 177 | 1.0 | 7.0 | 0.03 | 0.06 | 0.06 | 89 | 1008.7 |
| 20260506121552 | 59 | 173 | 3.0 | 7.0 | 0.04 | 0.06 | 0.06 | 89 | 1008.6 |